Temp
88 89 82 82 83 83 83 83 83 83 83 83 83 83 83 83 84 84 84 84 84 84 84 84 84 84 84 84 84 84 84 84 84 84 84 84 84 84 84 84 84 90 83
93 92 82 82 83 83 83 83 83 83 83 83 83 83 83 83 84 84 84 84 84 84 84 84 84 84 84 84 84 84 84 84 85 85 85 85 84 83 84 84 85 85 83
94 93 89 82 83 83 83 83 83 83 83 83 83 83 83 83 84 84 84 84 84 84 84 84 84 84 84 84 84 84 84 83 84 83 84 95 92 84 84 83 84 83 83
97 97 94 82 83 83 83 83 83 83 83 83 83 83 84 84 84 84 84 84 84 84 84 84 84 84 83 83 83 83 83 83 83 83 93 95 95 84 84 84 84 84 83
97 99 92 83 83 83 83 82 83 83 83 83 83 82 83 83 83 83 83 83 83 83 84 84 84 84 83 83 83 83 83 83 83 87 92 93 96 86 84 84 84 84 83
97 99 85 83 83 83 83 83 83 83 83 83 83 83 83 83 83 83 83 83 83 83 83 84 84 84 83 83 83 83 83 83 83 95 94 88 94 83 84 84 85 85 84
96 99 93 83 83 83 83 83 83 83 83 83 83 83 83 83 83 83 83 84 83 83 84 84 84 84 84 83 83 83 83 83 91 93 92 94 93 82 82 84 84 84 84
97 99 94 84 83 83 83 83 83 83 83 83 83 83 83 83 83 83 83 83 84 84 84 84 84 84 84 84 84 83 83 83 92 94 93 94 83 81 83 83 83 83 83
97 97 96 94 88 83 83 83 83 83 83 83 83 83 83 83 83 84 83 83 84 84 84 84 84 84 84 84 84 82 83 83 92 96 95 95 81 82 82 83 83 83 83
94 95 94 94 95 94 93 83 83 83 83 83 84 84 84 84 84 83 84 83 84 84 84 84 85 84 84 84 84 84 84 84 93 95 95 97 82 82 83 83 83 83 83
92 93 93 94 92 90 92 90 84 83 84 84 85 84 87 96 97 94 89 85 84 84 85 85 85 84 84 84 84 84 84 96 99 98 99 83 82 83 84 83 83 83 82
92 94 95 94 94 92 95 91 93 95 95 92 91 91 94 94 93 92 89 85 84 84 85 85 84 85 85 98 96 86 95 99 99 100 100 83 82 82 83 83 83 83 83
94 95 94 93 92 95 94 95 95 97 98 96 90 91 94 94 96 96 98 96 96 87 96 92 93 96 98 98 99 100 99 99 101 101 95 82 82 83 83 83 83 83 83
93 94 96 94 90 92 95 94 96 96 96 96 97 92 92 94 95 93 97 96 92 97 96 96 100 98 96 96 97 98 100 100 101 101 97 82 81 82 83 83 83 83 83
91 93 94 92 89 89 88 93 93 94 96 99 96 96 96 95 93 94 93 94 95 98 97 96 97 97 96 96 97 97 98 99 101 100 100 83 82 81 83 83 83 83 83
93 93 95 92 90 90 89 89 92 95 98 97 99 99 93 96 94 96 95 96 97 98 99 97 96 95 97 99 98 97 97 99 100 98 100 97 82 81 82 83 83 82 82
94 94 95 93 94 90 89 91 93 96 100 99 100 95 94 93 93 89 97 97 98 98 94 96 93 96 97 100 96 97 99 99 99 97 97 98 91 81 81 81 81 81 82
95 92 94 96 95 92 92 93 96 99 98 100 100 100 95 94 93 93 97 100 97 97 98 97 96 96 97 97 95 96 97 97 95 93 89 88 89 82 78 76 78 80 80
94 92 91 92 93 93 92 94 94 94 96 99 99 100 96 97 97 94 99 99 95 99 98 95 96 94 94 92 95 97 95 95 94 92 88 82 79 76 75 77 78 79 80
95 93 92 92 91 92 93 92 96 97 97 99 99 100 97 100 98 96 100 96 95 98 98 94 89 94 92 91 95 93 92 94 91 88 84 82 81 75 75 78 76 77 79
95 93 91 90 90 91 92 92 94 95 98 99 100 97 96 97 97 96 99 97 96 94 91 91 92 91 94 89 92 88 92 94 90 89 86 85 82 76 75 75 76 74 81
95 92 90 90 89 89 93 93 95 96 99 99 100 98 97 96 98 97 94 96 94 95 91 91 89 89 91 87 81 81 83 87 83 84 85 81 79 72 75 72 77 81 75
94 93 91 89 90 90 91 93 93 93 94 96 97 99 98 96 97 95 94 94 93 92 95 92 91 87 88 87 79 77 76 75 76 81 81 83 77 72 74 75 79 80 80
96 96 93 91 90 90 90 91 88 92 93 98 97 100 97 96 96 96 94 93 92 95 92 94 96 90 88 85 79 78 77 73 66 64 71 69 70 70 73 73 78 77 75
98 98 96 91 90 90 89 89 91 88 95 97 97 93 93 94 95 96 95 93 92 95 94 91 89 89 89 87 86 79 72 70 68 64 61 66 67 68 70 73 72 68 72
99 98 97 92 88 88 88 88 87 88 90 93 93 94 97 99 100 97 95 94 93 93 92 93 91 89 87 88 90 83 70 73 65 63 61 63 65 68 70 70 69 69 73
MSLP
1013.61 1014.24 1015.00 1015.19 1015.24 1015.39 1015.40 1015.37 1015.53 1015.56 1015.64 1015.73 1015.85 1015.86 1015.87 1015.95 1016.01 1016.08 1016.13 1016.24 1016.33 1016.38 1016.28 1016.46 1016.55 1016.68 1016.72 1016.88 1016.83 1017.01 1016.92 1016.81 1016.82 1016.67 1016.78 1016.81 1016.95 1017.00 1016.95 1016.90 1016.79 1016.69 1017.58
1013.30 1014.09 1015.14 1015.41 1015.43 1015.45 1015.55 1015.63 1015.74 1015.85 1015.95 1016.02 1016.07 1016.17 1016.19 1016.23 1016.27 1016.31 1016.39 1016.45 1016.51 1016.44 1016.59 1016.81 1016.87 1016.96 1017.14 1017.22 1017.31 1017.41 1017.33 1017.17 1017.07 1017.03 1016.91 1016.92 1017.15 1017.24 1017.42 1017.31 1017.39 1017.58 1017.63
1013.23 1014.11 1014.96 1015.52 1015.59 1015.60 1015.69 1015.81 1015.97 1016.12 1016.18 1016.25 1016.34 1016.34 1016.39 1016.46 1016.50 1016.59 1016.61 1016.67 1016.66 1016.60 1016.90 1016.92 1017.19 1017.30 1017.53 1017.57 1017.62 1017.65 1017.55 1017.47 1017.38 1017.39 1017.02 1016.14 1016.52 1017.60 1017.49 1017.69 1017.57 1017.63 1017.80
1013.03 1013.69 1014.40 1015.61 1015.74 1015.82 1015.98 1016.10 1016.24 1016.28 1016.34 1016.49 1016.54 1016.59 1016.61 1016.68 1016.75 1016.77 1016.87 1016.91 1016.87 1016.97 1017.18 1017.16 1017.42 1017.33 1017.55 1017.59 1017.67 1017.64 1017.64 1017.55 1017.52 1017.16 1016.46 1016.38 1016.08 1017.40 1017.38 1017.44 1017.68 1017.95 1018.29
1013.18 1013.36 1014.81 1015.73 1015.90 1016.06 1016.21 1016.40 1016.35 1016.40 1016.54 1016.65 1016.76 1016.73 1016.89 1016.94 1017.02 1017.00 1017.08 1017.17 1017.13 1017.28 1017.40 1017.39 1017.43 1017.29 1017.41 1017.51 1017.63 1017.63 1017.56 1017.49 1017.39 1016.92 1016.51 1016.73 1016.39 1017.44 1017.67 1017.73 1017.88 1018.07 1018.39
1013.13 1013.39 1015.50 1015.89 1016.08 1016.16 1016.35 1016.44 1016.50 1016.59 1016.73 1016.81 1016.80 1016.94 1017.06 1017.12 1017.10 1017.20 1017.30 1017.37 1017.46 1017.58 1017.43 1017.32 1017.28 1017.31 1017.39 1017.59 1017.80 1017.66 1017.54 1017.49 1017.43 1016.29 1016.44 1017.11 1016.67 1017.55 1017.63 1017.82 1017.77 1017.92 1018.14
1013.52 1013.69 1015.06 1015.98 1016.15 1016.28 1016.38 1016.56 1016.63 1016.77 1016.88 1016.94 1017.01 1017.08 1017.15 1017.17 1017.18 1017.31 1017.39 1017.52 1017.54 1017.42 1017.35 1017.38 1017.38 1017.33 1017.33 1017.48 1017.57 1017.49 1017.43 1017.45 1016.89 1016.42 1016.55 1016.51 1016.61 1017.58 1017.75 1017.72 1017.95 1018.09 1018.24
1013.49 1013.55 1014.70 1016.08 1016.22 1016.32 1016.53 1016.61 1016.78 1016.89 1016.98 1016.97 1017.11 1017.10 1017.23 1017.21 1017.26 1017.34 1017.50 1017.42 1017.34 1017.38 1017.35 1017.36 1017.33 1017.29 1017.26 1017.22 1017.25 1017.34 1017.35 1017.29 1016.57 1016.14 1016.41 1016.36 1017.17 1017.66 1017.73 1017.79 1017.90 1018.08 1018.22
1013.68 1013.76 1014.42 1015.15 1015.89 1016.38 1016.60 1016.76 1016.89 1016.92 1016.91 1017.01 1017.10 1017.14 1017.14 1017.16 1017.23 1017.30 1017.27 1017.25 1017.21 1017.18 1017.23 1017.19 1017.14 1017.10 1017.12 1017.08 1017.05 1017.17 1017.20 1017.08 1016.37 1015.79 1016.01 1016.15 1016.79 1017.30 1017.47 1017.62 1017.84 1017.95 1018.07
1014.05 1014.13 1014.40 1014.71 1015.01 1015.32 1015.86 1016.76 1016.86 1016.83 1016.89 1016.97 1017.00 1017.04 1017.02 1016.94 1016.86 1016.90 1016.84 1016.76 1016.87 1017.04 1017.00 1016.90 1016.84 1016.80 1016.82 1016.90 1016.88 1017.00 1016.92 1016.72 1016.06 1015.57 1015.91 1015.76 1016.75 1017.11 1017.24 1017.42 1017.54 1017.77 1017.92
1014.22 1014.55 1014.61 1014.93 1015.40 1015.74 1015.78 1016.09 1016.68 1016.69 1016.80 1016.82 1016.71 1016.75 1016.54 1015.59 1015.44 1015.81 1015.90 1016.38 1016.63 1016.66 1016.57 1016.46 1016.44 1016.54 1016.66 1016.62 1016.49 1016.57 1016.68 1015.21 1014.52 1014.81 1015.02 1015.88 1016.48 1016.83 1016.99 1017.13 1017.25 1017.32 1017.79
1013.78 1014.13 1014.55 1014.82 1015.02 1015.53 1015.46 1015.86 1015.88 1015.76 1015.61 1016.15 1016.11 1016.10 1015.84 1015.52 1015.64 1015.84 1015.86 1016.23 1016.42 1016.29 1016.16 1016.08 1016.14 1016.25 1016.23 1014.86 1014.89 1015.93 1015.32 1014.36 1014.40 1014.43 1014.57 1015.73 1016.36 1016.56 1016.72 1016.57 1016.86 1017.08 1017.22
1013.48 1013.83 1014.37 1014.87 1015.19 1014.98 1015.21 1015.46 1015.58 1015.46 1015.39 1015.50 1016.00 1015.98 1015.57 1015.59 1015.33 1015.14 1014.98 1015.22 1015.29 1015.74 1015.11 1015.38 1015.34 1015.19 1014.39 1014.45 1014.37 1014.15 1014.20 1014.28 1013.99 1014.00 1014.43 1015.36 1015.78 1015.95 1015.99 1016.20 1016.45 1016.92 1017.04
1013.37 1013.72 1014.12 1014.48 1015.20 1015.20 1015.27 1015.47 1015.42 1015.34 1015.30 1015.25 1015.27 1015.70 1015.62 1015.15 1015.25 1015.36 1014.93 1015.03 1015.42 1014.86 1014.75 1014.68 1014.01 1014.32 1014.40 1014.47 1014.44 1014.11 1013.81 1013.68 1013.38 1013.47 1013.47 1014.65 1015.27 1015.55 1015.63 1015.76 1015.88 1016.38 1016.90
1013.30 1013.62 1013.98 1014.65 1015.24 1015.42 1015.72 1015.42 1015.50 1015.27 1015.02 1014.87 1015.21 1015.24 1015.34 1015.15 1015.37 1015.31 1015.28 1015.15 1014.95 1014.58 1014.44 1014.37 1014.12 1014.08 1014.11 1014.14 1014.07 1013.91 1013.66 1013.30 1013.02 1013.02 1013.04 1014.02 1014.66 1014.89 1015.29 1015.34 1015.66 1015.78 1016.17
1013.02 1013.37 1013.96 1014.51 1014.97 1015.35 1015.56 1015.66 1015.36 1015.01 1014.82 1014.88 1014.74 1014.80 1015.38 1015.12 1015.28 1015.10 1014.98 1014.63 1014.43 1014.39 1014.16 1014.09 1013.91 1014.10 1013.88 1013.33 1013.43 1013.78 1013.62 1013.25 1012.80 1012.85 1012.53 1012.94 1014.21 1014.73 1014.75 1015.08 1015.25 1015.89 1016.01
1012.83 1013.22 1013.58 1014.26 1014.54 1015.10 1015.30 1015.24 1015.07 1014.73 1014.12 1014.56 1014.49 1014.98 1015.15 1015.23 1015.20 1015.42 1014.70 1014.44 1014.22 1014.45 1014.52 1014.03 1014.22 1014.02 1013.77 1013.55 1013.58 1013.45 1013.03 1012.74 1012.67 1012.70 1012.86 1012.56 1013.09 1014.20 1014.93 1015.59 1015.30 1015.99 1016.16
1012.50 1013.20 1013.56 1013.87 1014.17 1014.73 1014.86 1014.82 1014.58 1014.33 1014.43 1014.33 1014.36 1014.45 1014.79 1014.91 1015.03 1014.94 1014.42 1014.11 1014.27 1014.15 1013.85 1013.87 1014.01 1013.95 1013.52 1013.32 1013.45 1013.39 1013.28 1012.97 1013.03 1013.09 1013.55 1013.63 1013.71 1014.15 1015.23 1016.09 1016.22 1016.06 1016.48
1012.52 1013.10 1013.72 1014.06 1014.22 1014.48 1014.75 1014.51 1014.56 1014.52 1014.50 1014.14 1014.15 1014.05 1014.40 1014.49 1014.57 1014.83 1014.18 1014.08 1014.45 1013.92 1014.02 1014.17 1014.06 1014.15 1013.61 1013.77 1013.49 1013.15 1013.42 1013.22 1013.20 1013.44 1013.88 1014.38 1014.78 1014.59 1015.38 1015.69 1016.03 1016.14 1016.39
1012.13 1012.93 1013.48 1013.85 1014.26 1014.55 1014.57 1014.74 1014.32 1014.17 1014.06 1013.88 1013.87 1013.84 1014.17 1013.98 1014.35 1014.50 1014.07 1014.40 1014.54 1014.02 1013.83 1014.30 1014.72 1014.27 1014.10 1014.08 1013.54 1013.18 1013.53 1013.39 1013.80 1014.21 1014.63 1014.87 1014.91 1014.94 1014.86 1015.08 1015.76 1016.05 1016.11
1011.66 1012.43 1013.10 1013.53 1013.96 1014.42 1014.39 1014.22 1013.93 1013.63 1013.43 1013.47 1013.49 1013.89 1014.14 1014.05 1014.13 1014.30 1013.88 1014.22 1014.35 1014.39 1014.61 1014.56 1014.31 1014.07 1013.55 1014.29 1013.38 1013.67 1013.21 1013.51 1013.90 1014.18 1014.48 1014.73 1014.79 1015.09 1015.21 1015.37 1015.41 1015.69 1015.37
1011.04 1011.84 1012.58 1013.09 1013.62 1014.16 1014.14 1014.17 1013.88 1013.58 1013.31 1013.33 1013.31 1013.66 1013.81 1013.99 1013.98 1014.07 1014.32 1014.10 1014.32 1014.22 1014.45 1014.36 1014.41 1014.07 1013.62 1014.30 1014.49 1014.09 1013.27 1013.38 1014.23 1014.55 1014.92 1015.01 1015.18 1015.50 1015.46 1015.87 1015.38 1015.01 1015.25
1010.26 1011.06 1011.83 1012.55 1013.08 1013.66 1013.89 1014.06 1014.12 1014.06 1013.93 1013.46 1013.07 1013.20 1013.53 1013.76 1013.80 1013.93 1014.00 1014.11 1014.24 1014.36 1013.55 1013.89 1013.83 1014.06 1013.67 1013.98 1014.71 1014.55 1013.91 1013.61 1014.23 1014.61 1015.03 1015.24 1015.33 1015.52 1015.35 1015.30 1014.76 1014.63 1014.77
1009.33 1010.16 1011.05 1011.88 1012.53 1013.11 1013.64 1013.65 1013.68 1013.27 1012.81 1012.52 1013.08 1013.14 1013.41 1013.52 1013.61 1013.62 1013.73 1013.79 1013.97 1013.75 1013.68 1013.38 1013.07 1013.63 1013.68 1013.68 1014.55 1014.69 1014.31 1014.13 1014.09 1014.91 1015.05 1015.28 1015.41 1015.11 1015.03 1014.78 1014.30 1014.47 1014.78
1008.54 1009.25 1010.06 1011.11 1011.86 1012.40 1013.04 1013.35 1013.39 1013.46 1012.74 1012.85 1012.88 1013.38 1013.40 1013.47 1013.37 1013.32 1013.37 1013.44 1013.59 1013.43 1013.15 1013.35 1013.26 1013.24 1013.23 1013.42 1013.03 1014.02 1014.39 1014.61 1014.30 1014.81 1014.82 1015.03 1015.16 1014.99 1014.85 1014.63 1014.71 1015.08 1015.12
1007.79 1008.65 1009.37 1010.46 1011.36 1011.99 1012.48 1012.98 1013.20 1012.99 1012.94 1012.68 1012.90 1012.85 1012.62 1012.46 1012.56 1012.86 1013.09 1013.16 1013.21 1013.19 1013.00 1012.89 1012.93 1012.92 1012.88 1012.62 1012.39 1013.06 1013.69 1013.68 1014.08 1014.50 1014.38 1014.32 1014.64 1014.66 1014.59 1015.01 1015.20 1015.02 1014.78
Wind_Speed
9 13 9 9 9 11 11 11 10 9 9 10 10 11 11 11 11 10 10 10 10 9 8 8 8 8 7 9 10 11 11 12 11 11 10 10 9 9 10 9 8 13 12
14 14 10 9 9 10 10 10 8 8 7 8 8 9 9 9 9 8 9 8 8 6 6 6 6 5 5 7 9 10 10 10 9 9 7 11 8 7 7 7 6 11 12
14 15 13 10 9 10 8 8 7 6 6 6 7 7 7 8 7 7 7 7 5 4 5 4 4 4 5 6 7 8 8 7 6 5 5 3 11 5 5 6 8 10 10
13 14 14 10 10 9 8 7 6 5 6 5 6 6 6 7 7 7 6 5 3 2 4 3 4 3 4 4 5 5 5 4 4 5 5 3 8 7 7 6 6 8 8
11 11 16 10 10 9 8 6 6 7 6 6 6 6 5 5 5 5 5 4 2 3 3 3 2 0 0 1 3 3 3 3 3 10 4 1 2 10 6 5 8 7 9
10 11 14 10 9 8 7 6 7 7 6 4 5 5 3 3 3 3 2 2 2 2 1 2 3 3 3 2 2 2 2 2 6 2 1 6 3 10 5 4 0 4 7
10 11 14 9 9 7 6 4 6 7 4 2 2 1 1 1 1 1 1 1 2 4 4 4 5 5 4 3 3 3 4 4 9 3 4 2 6 6 3 5 5 5 6
10 10 15 11 8 8 6 5 4 4 3 2 2 2 3 4 4 4 3 4 5 5 6 6 7 7 6 5 5 5 5 7 9 5 5 6 11 4 5 6 6 6 6
9 8 9 11 8 8 5 4 4 4 3 2 3 4 5 6 5 5 6 6 7 7 7 7 8 8 7 7 6 6 7 7 11 4 6 5 13 8 8 9 9 9 8
7 8 7 7 9 8 10 6 4 4 3 4 5 5 6 8 9 9 8 12 8 7 8 8 9 9 8 8 8 8 8 10 11 6 6 2 10 7 9 11 12 10 10
8 8 7 8 6 5 3 9 8 6 5 6 8 8 8 7 1 3 4 1 6 10 10 10 10 10 9 11 12 10 9 9 7 5 4 13 7 8 9 7 11 11 10
11 10 10 8 8 7 4 4 4 4 3 2 3 4 5 4 5 7 6 3 7 10 9 10 11 10 10 8 8 11 8 5 4 4 4 11 7 8 7 8 11 12 12
10 8 8 8 6 7 5 4 3 3 3 3 4 5 3 4 2 4 2 4 3 10 7 10 9 9 6 5 3 4 3 6 5 5 6 11 10 10 8 9 11 11 12
10 9 10 9 7 5 4 5 3 3 3 4 2 3 3 4 1 3 3 3 3 4 3 5 4 4 6 6 7 7 7 6 5 5 5 14 12 11 11 12 14 12 11
11 10 8 9 7 5 5 4 3 4 4 3 4 3 3 4 2 3 3 4 4 3 4 4 4 4 4 7 7 7 9 9 10 6 6 15 13 13 11 12 13 13 10
10 11 11 10 8 7 6 5 4 4 2 4 2 1 4 3 2 2 2 3 3 3 4 5 4 4 5 5 4 5 8 10 10 9 8 8 12 12 13 11 11 7 9
10 10 11 10 10 8 7 6 5 4 3 2 2 3 3 3 2 3 3 2 2 2 6 3 3 3 5 3 4 6 8 9 8 9 8 8 7 13 9 9 8 11 9
10 11 10 9 10 8 6 5 5 3 4 2 2 2 3 4 3 3 4 2 5 4 4 4 2 4 4 5 5 6 7 7 5 5 4 4 3 6 8 2 6 5 8
10 11 11 10 9 8 7 6 5 3 5 3 3 3 4 3 3 4 3 2 4 3 3 5 4 4 5 5 7 4 6 6 5 6 4 5 3 6 6 6 6 7 10
12 12 12 10 9 7 5 5 5 5 5 4 4 3 2 3 2 4 2 3 5 4 4 6 5 6 2 4 7 5 4 5 6 5 5 4 5 6 3 3 2 6 10
13 13 13 12 10 8 7 7 6 6 5 5 4 2 3 4 4 2 3 2 2 4 5 5 4 4 6 5 6 7 1 3 6 5 4 3 4 4 3 2 3 4 6
15 15 15 14 12 10 8 6 5 4 4 4 3 2 3 4 2 3 3 3 2 4 3 4 3 5 5 5 3 3 5 4 5 4 3 3 2 0 3 4 6 10 5
16 16 15 15 14 12 11 7 6 6 6 7 6 5 5 5 4 4 4 5 4 5 7 4 4 4 5 1 3 2 2 3 3 3 1 1 1 1 3 6 10 10 8
16 16 16 15 14 12 12 9 9 8 7 3 2 1 4 4 4 6 7 6 6 7 7 8 5 6 5 6 4 3 4 2 4 5 2 2 2 4 4 6 7 6 4
15 14 15 15 15 13 12 12 10 11 7 6 5 3 5 4 5 5 5 6 7 7 7 9 9 8 6 6 4 5 4 3 1 3 7 6 3 3 5 2 2 2 4
14 14 14 15 14 14 14 14 13 11 10 7 7 6 6 5 5 2 5 6 6 7 8 8 8 9 9 8 8 4 4 5 4 4 8 7 4 3 2 2 3 3 4
Wind_Direction
146 128 139 132 125 122 118 118 113 106 98 95 92 85 87 90 95 98 99 92 87 92 102 96 93 93 90 84 81 76 75 77 78 79 90 93 98 104 105 121 165 111 121
142 138 139 133 130 132 129 131 126 115 107 100 95 92 87 90 93 99 95 90 92 100 105 100 103 98 86 83 77 73 66 68 71 67 94 112 106 117 121 121 57 109 130
142 128 144 137 140 129 139 138 132 122 115 100 93 94 100 105 97 98 96 97 90 100 94 101 90 71 63 64 72 75 71 69 78 84 301 62 100 114 136 131 130 148 145
141 143 136 141 139 133 143 137 128 126 111 114 102 97 100 109 113 112 112 115 124 107 82 62 56 42 61 69 78 83 90 92 100 193 199 69 106 129 144 149 152 150 148
145 142 111 143 136 133 135 126 151 135 122 109 117 111 102 100 99 102 105 109 96 66 50 36 62 305 133 109 107 121 138 154 195 239 154 191 274 115 144 146 163 166 175
141 131 123 144 139 140 138 153 142 123 119 131 140 113 104 104 104 113 106 85 41 20 299 262 250 245 233 204 157 188 207 236 264 216 216 117 228 108 161 172 106 132 169
150 132 140 151 144 134 157 142 136 130 120 109 78 85 241 253 246 269 264 290 281 265 265 265 268 270 264 229 208 221 234 244 266 191 181 224 125 138 171 182 191 194 183
141 156 131 141 161 150 155 159 126 125 158 175 203 239 254 259 261 265 270 266 263 267 267 269 267 265 260 247 236 227 243 251 218 219 213 201 110 163 204 208 201 202 206
146 129 141 151 157 157 171 160 162 181 199 222 249 267 270 270 272 269 260 256 256 254 256 256 257 256 257 255 253 242 242 249 278 218 236 211 139 189 216 222 217 211 203
145 141 139 147 164 183 157 168 194 210 231 249 257 261 269 265 238 229 241 225 236 249 249 248 247 247 245 243 243 238 235 242 243 204 223 196 141 209 231 225 220 204 208
163 153 165 149 161 146 194 142 194 203 238 248 235 232 253 255 222 191 112 227 249 249 243 244 246 247 249 243 234 232 233 244 209 215 215 118 169 229 246 256 206 202 211
165 169 157 183 160 170 171 145 188 160 233 192 254 274 265 316 310 314 317 255 254 262 262 238 238 244 239 245 190 204 234 260 249 251 224 136 190 239 256 232 195 195 202
164 167 162 169 179 170 149 168 183 202 217 205 238 262 295 303 271 258 240 223 236 202 248 195 199 222 241 291 247 263 255 251 239 232 123 154 201 218 219 209 187 200 202
168 177 169 163 165 184 171 187 179 223 203 234 187 265 244 244 196 298 294 315 239 248 299 246 259 269 276 256 266 277 263 255 251 248 189 170 194 212 216 206 184 195 218
174 172 174 162 173 195 199 185 245 253 211 234 215 185 267 306 345 301 331 292 296 289 252 258 248 274 276 254 258 259 269 283 269 247 263 164 196 206 212 202 192 192 206
177 177 168 178 182 200 220 218 242 239 223 234 253 201 209 289 13 332 257 256 259 275 308 303 278 299 291 279 246 267 285 280 270 276 256 193 186 213 205 202 194 218 189
177 184 178 184 188 202 221 224 223 236 195 247 225 183 223 237 173 291 315 287 318 334 273 241 274 245 274 275 266 268 282 285 282 286 264 261 173 209 221 244 193 185 203
190 186 193 193 189 204 222 238 243 218 271 271 252 246 196 216 235 260 272 352 36 277 342 350 319 310 302 330 327 314 326 319 343 295 339 309 254 20 83 348 262 181 232
192 189 200 204 212 210 201 226 230 234 244 255 260 240 156 227 234 278 297 5 324 313 350 343 5 348 343 346 307 329 338 349 352 30 11 59 64 99 144 174 221 240 224
194 198 200 205 211 210 214 222 248 249 252 241 245 264 280 251 249 266 322 324 306 310 320 9 345 352 326 345 320 350 2 6 30 39 45 64 102 90 91 135 208 241 230
202 202 206 207 209 212 209 225 227 245 224 239 237 240 251 226 204 225 301 249 265 288 342 318 313 303 345 15 325 348 312 70 61 56 63 80 105 56 86 201 244 263 244
208 208 205 211 203 206 210 232 265 267 245 291 275 287 212 190 197 235 277 306 339 302 291 287 300 313 328 74 354 296 344 109 93 67 51 105 106 352 263 276 257 246 246
214 206 207 206 204 207 224 213 229 247 246 232 203 210 170 195 231 237 251 277 278 270 269 300 263 278 310 337 145 223 237 230 356 123 265 336 280 223 261 258 254 255 244
216 210 206 205 201 200 205 225 226 247 243 201 250 212 238 222 252 254 247 254 259 295 306 282 262 265 256 289 137 210 254 326 142 278 218 209 231 250 253 282 292 282 230
212 207 202 198 197 205 195 222 212 232 232 236 239 209 242 240 255 282 240 245 255 266 302 296 293 277 278 260 246 204 198 240 266 127 265 272 205 219 247 253 315 329 255
204 205 198 191 199 197 196 203 219 239 241 250 231 266 256 258 264 209 282 262 270 284 276 296 298 267 261 277 285 270 195 212 191 193 235 251 239 229 245 136 221 245 227